Weather in Kudesnery

Russia / Chuvash Republic     55°37′36″N   47°55′18″E
temp.,
°C
wind,
m/s
gust,
m/s
humid.,
%
clouds,
%
prec.,
mm/h
press.,
hPa
HPBL,
m
7 march, sun
sun700:00−16w349766 0.0 101232
03:00−16wsw239837 0.0 101220
06:00−16wsw339868 0.0 101132
09:00−14sw369676 0.1 1010201
12:00−9ssw489184 0.0 1009504
15:00−7s698592 0.1 1005745
18:00−8s71392100 0.1 1002728
21:00−7s81494100 1.3 999805
8 march, mon
mon800:00−6ssw71394100 1.0 994741
03:00−5s61295100 1.7 992599
06:00−5w101693100 1.6 991675
09:00−10w8148281 1.7 994393
12:00−7wsw7118973 0.0 997712
15:00−6wsw598470 0.0 998746
18:00−9wnw2391100 0.0 99821
21:00−12wnw349278 0.0 100036
9 march, tue
tue900:00−13wnw47950 0.0 1003113
03:00−16wnw459711 0.0 100682
06:00−18wnw349863 0.0 100838
09:00−16wnw249659 0.0 1010136
12:00−13nw239080 0.0 1011288
15:00−11nw249090 0.0 1011465
18:00−13n3696100 0.1 1012142
21:00−16n4896100 0.2 1014234
10 march, wed
wed1000:00−20nnw589992 0.0 1014168
03:00−22nnw599996 0.1 1015192
06:00−25nnw5119778 0.0 1017209
09:00−25nnw699569 0.0 1019296
12:00−21nnw699280 0.0 1020469
15:00−19nnw6108778 0.0 1021592
18:00−22nnw499411 0.0 1022141
21:00−24nw47976 0.0 1024112
11 march, thu
thu1100:00−25nw46980 0.0 102486
03:00−26wnw46990 0.0 102592
06:00−25wnw5109815 0.0 1026156
09:00−20wnw6119656 0.0 1026287
12:00−16wnw6109157 0.0 1026390
15:00−12nw6109055 0.0 1026543
18:00−13wnw499599 0.1 1027200
21:00−14wnw499699 0.1 1029189